Location: Mentone
(34.5413°N, 85.5351°W)
Time: 10:53:39
(UTC-05:00)

Cosmos 2150 Rocket - Visible Passes

Search period start: 25 July 2016 00:00
Search period end: 04 August 2016 00:00
Orbit: 749 x 808 km, 74.0° (Epoch: 25 July)

Date Brightness Start Highest point End Pass type
(mag) Time Alt. Az. Time Alt. Az. Time Alt. Az.
25 Jul 5.0 02:54:38 10° N 02:59:36 43° ENE 03:02:06 25° SE visible
25 Jul 5.4 04:38:03 10° NW 04:41:27 18° W 04:42:29 17° WSW visible
26 Jul 5.8 02:21:19 10° N 02:25:40 26° ENE 02:27:36 21° E visible
26 Jul 4.8 04:03:24 10° NW 04:07:53 30° W 04:08:00 30° WSW visible
27 Jul 6.4 01:48:24 10° NNE 01:51:38 16° ENE 01:53:18 14° E visible
27 Jul 4.2 03:29:12 10° NNW 03:33:43 49° W 03:33:43 49° W visible
28 Jul 4.2 02:55:16 10° NNW 02:59:35 62° NNW 02:59:35 62° NNW visible
29 Jul 4.9 02:21:34 10° N 02:25:35 46° NNE 02:25:35 46° NNE visible
29 Jul 6.2 04:06:00 10° WNW 04:06:02 10° WNW 04:06:02 10° WNW visible
30 Jul 5.6 01:48:06 10° N 01:51:41 30° NE 01:51:41 30° NE visible
30 Jul 6.0 03:30:50 10° NW 03:32:07 15° WNW 03:32:07 15° WNW visible
31 Jul 6.2 01:14:56 10° NNE 01:17:52 20° NE 01:17:52 20° NE visible
31 Jul 5.8 02:56:26 10° NW 02:58:19 21° NW 02:58:19 21° NW visible
01 Aug 6.6 00:42:27 10° NNE 00:44:07 13° NE 00:44:07 13° NE visible
01 Aug 5.7 02:22:22 10° NNW 02:24:34 25° NNW 02:24:34 25° NNW visible
02 Aug 5.8 01:48:34 10° NNW 01:50:52 27° N 01:50:52 27° N visible
03 Aug 6.0 01:14:58 10° N 01:17:14 24° NNE 01:17:14 24° NNE visible
